Location: Buttermere
(51.3333°N, 1.5167°W)
Time: 02:19:57
(UTC+00:00)

SPOT 3 Rocket - Pass Details

Date: 18 September 2020
Orbit: 780 x 794 km, 98.7° (Epoch: 30 October)

Event Time Altitude Azimuth Distance (km) Brightness Sun altitude
Exits shadow 20:03:36 24° 150° (SSE) 1,555 4.6 -17.5°
Maximum altitude 20:06:41 71° 71° (ENE) 827 3.5 -18.0°
Drops below altitude 10° 20:11:50 10° 348° (NNW) 2,347 6.5 -18.7°
Sets 20:14:10 0° 347° (NNW) 3,281 7.4 -19.0°
